Time,TemperatureF,DewpointF,PressureIn,WindDirection,WindDirectionDegrees,WindSpeedMPH,WindSpeedGustMPH,Humidity,HourlyPrecipIn,Conditions,Clouds,dailyrainin,SoftwareType,DateUTC
2013-04-08 00:00:00,56.2,47.7,30.05,East,88,0.0,-999.0,73,0.00,,,0.00,Wunderground v.1.12,2013-04-08 04:00:00,
2013-04-08 00:05:00,56.0,47.1,30.05,East,88,0.0,-999.0,72,0.00,,,0.00,Wunderground v.1.12,2013-04-08 04:05:00,
2013-04-08 00:09:00,55.9,47.7,30.05,East,88,0.0,-999.0,74,0.00,,,0.00,Wunderground v.1.12,2013-04-08 04:09:00,
2013-04-08 00:13:00,55.7,47.5,30.05,East,88,0.0,-999.0,74,0.00,,,0.00,Wunderground v.1.12,2013-04-08 04:13:00,
2013-04-08 00:18:00,55.6,46.7,30.05,East,88,0.0,-999.0,72,0.00,,,0.00,Wunderground v.1.12,2013-04-08 04:18:00,
2013-04-08 00:24:00,55.4,47.2,30.05,East,88,0.0,-999.0,74,0.00,,,0.00,Wunderground v.1.12,2013-04-08 04:24:00,
2013-04-08 00:30:00,55.3,46.8,30.05,East,88,0.0,-999.0,73,0.00,,,0.00,Wunderground v.1.12,2013-04-08 04:30:00,
2013-04-08 00:35:00,55.1,46.6,30.05,East,88,0.0,-999.0,73,0.00,,,0.00,Wunderground v.1.12,2013-04-08 04:35:00,
2013-04-08 00:41:00,55.0,46.5,30.05,East,88,0.0,-999.0,73,0.00,,,0.00,Wunderground v.1.12,2013-04-08 04:41:00,
2013-04-08 00:47:00,54.8,46.3,30.05,East,88,0.0,-999.0,73,0.00,,,0.00,Wunderground v.1.12,2013-04-08 04:47:00,
2013-04-08 00:53:00,54.7,46.2,30.05,East,88,0.0,-999.0,73,0.00,,,0.00,Wunderground v.1.12,2013-04-08 04:53:00,
2013-04-08 00:58:00,54.7,46.6,30.05,East,88,0.0,-999.0,74,0.00,,,0.00,Wunderground v.1.12,2013-04-08 04:58:00,
2013-04-08 01:03:00,54.5,46.4,30.05,East,88,0.0,-999.0,74,0.00,,,0.00,Wunderground v.1.12,2013-04-08 05:03:00,
2013-04-08 01:08:00,54.4,46.6,30.05,East,88,0.0,-999.0,75,0.00,,,0.00,Wunderground v.1.12,2013-04-08 05:08:00,
2013-04-08 01:13:00,54.4,46.6,30.04,East,88,0.0,-999.0,75,0.00,,,0.00,Wunderground v.1.12,2013-04-08 05:13:00,
2013-04-08 01:19:00,54.2,46.4,30.04,East,88,0.0,-999.0,75,0.00,,,0.00,Wunderground v.1.12,2013-04-08 05:19:00,
2013-04-08 01:25:00,54.1,46.3,30.04,East,88,0.0,-999.0,75,0.00,,,0.00,Wunderground v.1.12,2013-04-08 05:25:00,
2013-04-08 01:30:00,53.9,46.5,30.04,East,88,0.0,-999.0,76,0.00,,,0.00,Wunderground v.1.12,2013-04-08 05:30:00,
2013-04-08 01:36:00,53.9,46.5,30.04,East,88,0.0,-999.0,76,0.00,,,0.00,Wunderground v.1.12,2013-04-08 05:36:00,
2013-04-08 01:42:00,53.8,46.4,30.04,East,88,0.0,-999.0,76,0.00,,,0.00,Wunderground v.1.12,2013-04-08 05:42:00,
2013-04-08 01:48:00,53.6,46.6,30.04,East,88,0.0,-999.0,77,0.00,,,0.00,Wunderground v.1.12,2013-04-08 05:48:00,
2013-04-08 01:53:00,53.6,46.6,30.04,East,88,0.0,-999.0,77,0.00,,,0.00,Wunderground v.1.12,2013-04-08 05:53:00,
2013-04-08 01:59:00,53.5,46.5,30.04,East,88,0.0,-999.0,77,0.00,,,0.00,Wunderground v.1.12,2013-04-08 05:59:00,
2013-04-08 02:04:00,53.5,46.8,30.04,East,88,0.0,-999.0,78,0.00,,,0.00,Wunderground v.1.12,2013-04-08 06:04:00,
2013-04-08 02:09:00,53.5,46.8,30.04,East,88,0.0,-999.0,78,0.00,,,0.00,Wunderground v.1.12,2013-04-08 06:09:00,
2013-04-08 02:14:00,53.5,47.1,30.04,East,88,0.0,-999.0,79,0.00,,,0.00,Wunderground v.1.12,2013-04-08 06:14:00,
2013-04-08 02:19:00,53.5,47.1,30.04,East,88,0.0,-999.0,79,0.00,,,0.00,Wunderground v.1.12,2013-04-08 06:19:00,
2013-04-08 02:24:00,53.3,47.3,30.04,East,88,0.0,-999.0,80,0.00,,,0.00,Wunderground v.1.12,2013-04-08 06:24:00,
2013-04-08 02:29:00,53.3,47.3,30.04,East,88,0.0,-999.0,80,0.00,,,0.00,Wunderground v.1.12,2013-04-08 06:29:00,
2013-04-08 02:34:00,53.3,47.3,30.04,East,88,0.0,-999.0,80,0.00,,,0.00,Wunderground v.1.12,2013-04-08 06:34:00,
2013-04-08 02:40:00,53.3,47.3,30.04,East,88,0.0,-999.0,80,0.00,,,0.00,Wunderground v.1.12,2013-04-08 06:40:00,
2013-04-08 02:45:00,53.3,47.6,30.03,East,88,0.0,-999.0,81,0.00,,,0.00,Wunderground v.1.12,2013-04-08 06:45:00,
2013-04-08 02:50:00,53.2,47.5,30.03,East,88,0.0,-999.0,81,0.00,,,0.00,Wunderground v.1.12,2013-04-08 06:50:00,
2013-04-08 02:55:00,53.2,47.5,30.03,East,88,0.0,-999.0,81,0.00,,,0.00,Wunderground v.1.12,2013-04-08 06:55:00,
2013-04-08 03:00:00,53.2,47.5,30.03,East,88,0.0,-999.0,81,0.00,,,0.00,Wunderground v.1.12,2013-04-08 07:00:00,
2013-04-08 03:05:00,53.2,47.8,30.03,East,88,0.0,-999.0,82,0.00,,,0.00,Wunderground v.1.12,2013-04-08 07:05:00,
2013-04-08 03:10:00,53.2,47.8,30.03,East,88,0.0,-999.0,82,0.00,,,0.00,Wunderground v.1.12,2013-04-08 07:10:00,
2013-04-08 03:15:00,53.2,47.8,30.03,East,88,0.0,-999.0,82,0.00,,,0.00,Wunderground v.1.12,2013-04-08 07:15:00,
2013-04-08 03:20:00,53.2,47.8,30.03,East,88,0.0,-999.0,82,0.00,,,0.00,Wunderground v.1.12,2013-04-08 07:20:00,
2013-04-08 03:25:00,53.2,47.8,30.03,East,88,0.0,-999.0,82,0.00,,,0.00,Wunderground v.1.12,2013-04-08 07:25:00,
2013-04-08 03:30:00,53.2,47.8,30.02,East,88,0.0,-999.0,82,0.00,,,0.00,Wunderground v.1.12,2013-04-08 07:30:00,
2013-04-08 03:35:00,53.2,48.2,30.02,East,88,0.0,-999.0,83,0.00,,,0.00,Wunderground v.1.12,2013-04-08 07:35:00,
2013-04-08 03:40:00,53.2,48.2,30.02,East,88,0.0,-999.0,83,0.00,,,0.00,Wunderground v.1.12,2013-04-08 07:40:00,
2013-04-08 03:45:00,53.2,48.2,30.02,East,88,0.0,-999.0,83,0.00,,,0.00,Wunderground v.1.12,2013-04-08 07:45:00,
2013-04-08 03:50:00,53.3,48.6,30.02,East,88,0.0,-999.0,84,0.00,,,0.00,Wunderground v.1.12,2013-04-08 07:50:00,
2013-04-08 03:55:00,53.3,48.6,30.02,East,88,0.0,-999.0,84,0.00,,,0.00,Wunderground v.1.12,2013-04-08 07:55:00,
2013-04-08 04:00:00,53.3,48.6,30.02,East,88,0.0,-999.0,84,0.00,,,0.00,Wunderground v.1.12,2013-04-08 08:00:00,
2013-04-08 04:05:00,53.3,48.6,30.02,East,88,0.0,-999.0,84,0.00,,,0.00,Wunderground v.1.12,2013-04-08 08:05:00,
2013-04-08 04:10:00,53.5,48.8,30.03,East,88,0.0,-999.0,84,0.00,,,0.00,Wunderground v.1.12,2013-04-08 08:10:00,
2013-04-08 04:15:00,53.5,48.8,30.03,East,88,0.0,-999.0,84,0.00,,,0.00,Wunderground v.1.12,2013-04-08 08:15:00,
2013-04-08 04:20:00,53.8,49.4,30.03,East,88,0.0,-999.0,85,0.00,,,0.00,Wunderground v.1.12,2013-04-08 08:20:00,
2013-04-08 04:25:00,53.9,49.5,30.03,SE,127,0.0,-999.0,85,0.00,,,0.00,Wunderground v.1.12,2013-04-08 08:25:00,
2013-04-08 04:31:00,54.2,49.8,30.03,ENE,77,0.0,-999.0,85,0.00,,,0.00,Wunderground v.1.12,2013-04-08 08:31:00,
2013-04-08 04:36:00,54.4,50.0,30.03,ENE,78,0.0,-999.0,85,0.00,,,0.00,Wunderground v.1.12,2013-04-08 08:36:00,
2013-04-08 04:41:00,54.5,50.1,30.03,ENE,78,0.0,-999.0,85,0.00,,,0.00,Wunderground v.1.12,2013-04-08 08:41:00,
2013-04-08 04:46:00,54.7,50.3,30.03,ENE,78,0.0,-999.0,85,0.00,,,0.00,Wunderground v.1.12,2013-04-08 08:46:00,
2013-04-08 04:51:00,54.8,50.4,30.03,ENE,78,0.0,-999.0,85,0.00,,,0.00,Wunderground v.1.12,2013-04-08 08:51:00,
2013-04-08 04:56:00,55.0,50.6,30.02,ENE,78,0.0,-999.0,85,0.00,,,0.00,Wunderground v.1.12,2013-04-08 08:56:00,
2013-04-08 05:01:00,55.1,50.7,30.02,ENE,78,0.0,-999.0,85,0.00,,,0.00,Wunderground v.1.12,2013-04-08 09:01:00,
2013-04-08 05:06:00,55.1,50.7,30.02,ENE,78,0.0,-999.0,85,0.00,,,0.00,Wunderground v.1.12,2013-04-08 09:06:00,
2013-04-08 05:11:00,55.3,50.5,30.03,ENE,78,0.0,-999.0,84,0.00,,,0.00,Wunderground v.1.12,2013-04-08 09:11:00,
2013-04-08 05:17:00,55.3,50.5,30.03,ENE,78,0.0,-999.0,84,0.00,,,0.00,Wunderground v.1.12,2013-04-08 09:17:00,
2013-04-08 05:22:00,55.3,50.5,30.03,ENE,78,0.0,-999.0,84,0.00,,,0.00,Wunderground v.1.12,2013-04-08 09:22:00,
2013-04-08 05:27:00,55.3,50.5,30.03,ENE,78,0.0,-999.0,84,0.00,,,0.00,Wunderground v.1.12,2013-04-08 09:27:00,
2013-04-08 05:32:00,55.3,50.5,30.03,ENE,78,0.0,-999.0,84,0.00,,,0.00,Wunderground v.1.12,2013-04-08 09:32:00,
2013-04-08 05:37:00,55.3,50.5,30.03,ENE,78,0.0,-999.0,84,0.00,,,0.00,Wunderground v.1.12,2013-04-08 09:37:00,
2013-04-08 05:42:00,55.3,50.2,30.03,ENE,78,0.0,-999.0,83,0.00,,,0.00,Wunderground v.1.12,2013-04-08 09:42:00,
2013-04-08 05:47:00,55.3,50.2,30.03,ENE,78,0.0,-999.0,83,0.00,,,0.00,Wunderground v.1.12,2013-04-08 09:47:00,
2013-04-08 05:52:00,55.1,50.0,30.03,ENE,78,0.0,-999.0,83,0.00,,,0.00,Wunderground v.1.12,2013-04-08 09:52:00,
2013-04-08 05:58:00,55.1,50.0,30.03,ENE,78,0.0,-999.0,83,0.00,,,0.00,Wunderground v.1.12,2013-04-08 09:58:00,
2013-04-08 06:03:00,55.0,49.9,30.03,ENE,78,0.0,-999.0,83,0.00,,,0.00,Wunderground v.1.12,2013-04-08 10:03:00,
2013-04-08 06:08:00,54.8,49.7,30.03,ENE,78,0.0,-999.0,83,0.00,,,0.00,Wunderground v.1.12,2013-04-08 10:08:00,
2013-04-08 06:13:00,54.8,49.7,30.03,ENE,78,0.0,-999.0,83,0.00,,,0.00,Wunderground v.1.12,2013-04-08 10:13:00,
2013-04-08 06:19:00,54.7,49.3,30.03,ENE,78,0.0,-999.0,82,0.00,,,0.00,Wunderground v.1.12,2013-04-08 10:19:00,
2013-04-08 06:24:00,54.5,49.1,30.03,ENE,78,0.0,-999.0,82,0.00,,,0.00,Wunderground v.1.12,2013-04-08 10:24:00,
2013-04-08 06:29:00,54.4,49.0,30.04,ENE,78,0.0,-999.0,82,0.00,,,0.00,Wunderground v.1.12,2013-04-08 10:29:00,
2013-04-08 06:34:00,54.2,48.8,30.04,ENE,78,0.0,-999.0,82,0.00,,,0.00,Wunderground v.1.12,2013-04-08 10:34:00,
2013-04-08 06:39:00,54.1,48.7,30.04,ENE,78,0.0,-999.0,82,0.00,,,0.00,Wunderground v.1.12,2013-04-08 10:39:00,
2013-04-08 06:44:00,53.9,48.5,30.04,ENE,78,0.0,-999.0,82,0.00,,,0.00,Wunderground v.1.12,2013-04-08 10:44:00,
2013-04-08 06:49:00,53.6,48.2,30.04,ENE,78,0.0,-999.0,82,0.00,,,0.00,Wunderground v.1.12,2013-04-08 10:49:00,
2013-04-08 06:54:00,53.5,48.1,30.04,ENE,78,0.0,-999.0,82,0.00,,,0.00,Wunderground v.1.12,2013-04-08 10:54:00,
2013-04-08 06:59:00,53.3,47.9,30.05,ENE,78,0.0,-999.0,82,0.00,,,0.00,Wunderground v.1.12,2013-04-08 10:59:00,
2013-04-08 07:04:00,53.2,47.8,30.05,ENE,78,0.0,-999.0,82,0.00,,,0.00,Wunderground v.1.12,2013-04-08 11:04:00,
2013-04-08 07:09:00,53.1,47.7,30.05,ENE,78,0.0,-999.0,82,0.00,,,0.00,Wunderground v.1.12,2013-04-08 11:09:00,
2013-04-08 07:14:00,52.9,47.6,30.07,ENE,78,0.0,-999.0,82,0.00,,,0.00,Wunderground v.1.12,2013-04-08 11:14:00,
2013-04-08 07:19:00,52.8,47.8,30.07,ENE,78,0.0,-999.0,83,0.00,,,0.00,Wunderground v.1.12,2013-04-08 11:19:00,
2013-04-08 07:24:00,52.6,47.6,30.07,ENE,78,0.0,-999.0,83,0.00,,,0.00,Wunderground v.1.12,2013-04-08 11:24:00,
2013-04-08 07:29:00,52.5,47.5,30.08,ENE,78,0.0,-999.0,83,0.00,,,0.00,Wunderground v.1.12,2013-04-08 11:29:00,
2013-04-08 07:34:00,52.3,47.3,30.08,ENE,78,0.0,-999.0,83,0.00,,,0.00,Wunderground v.1.12,2013-04-08 11:34:00,
2013-04-08 07:39:00,52.3,47.3,30.08,ENE,78,0.0,-999.0,83,0.00,,,0.00,Wunderground v.1.12,2013-04-08 11:39:00,
2013-04-08 07:45:00,52.2,47.2,30.09,ENE,78,0.0,-999.0,83,0.00,,,0.00,Wunderground v.1.12,2013-04-08 11:45:00,
2013-04-08 07:50:00,52.0,47.0,30.09,ENE,78,0.0,-999.0,83,0.00,,,0.00,Wunderground v.1.12,2013-04-08 11:50:00,
2013-04-08 07:55:00,51.9,46.9,30.09,ENE,78,0.0,-999.0,83,0.00,,,0.00,Wunderground v.1.12,2013-04-08 11:55:00,
2013-04-08 08:00:00,51.9,46.9,30.09,ENE,78,0.0,-999.0,83,0.00,,,0.00,Wunderground v.1.12,2013-04-08 12:00:00,
2013-04-08 08:05:00,51.7,47.0,30.09,ENE,78,0.0,-999.0,84,0.00,,,0.00,Wunderground v.1.12,2013-04-08 12:05:00,
2013-04-08 08:10:00,51.7,47.0,30.09,ENE,78,0.0,-999.0,84,0.00,,,0.00,Wunderground v.1.12,2013-04-08 12:10:00,
2013-04-08 08:15:00,51.9,47.2,30.11,ENE,78,0.0,-999.0,84,0.00,,,0.00,Wunderground v.1.12,2013-04-08 12:15:00,
2013-04-08 08:20:00,52.0,47.6,30.11,ENE,78,0.0,-999.0,85,0.00,,,0.00,Wunderground v.1.12,2013-04-08 12:20:00,
2013-04-08 08:25:00,52.2,48.1,30.11,ENE,78,0.0,-999.0,86,0.00,,,0.00,Wunderground v.1.12,2013-04-08 12:25:00,
2013-04-08 08:30:00,52.3,48.5,30.11,ENE,78,0.0,-999.0,87,0.00,,,0.00,Wunderground v.1.12,2013-04-08 12:30:00,
2013-04-08 08:35:00,52.8,49.3,30.11,ESE,105,0.0,-999.0,88,0.00,,,0.00,Wunderground v.1.12,2013-04-08 12:35:00,
2013-04-08 08:40:00,53.2,50.0,30.11,ESE,105,0.0,-999.0,89,0.00,,,0.00,Wunderground v.1.12,2013-04-08 12:40:00,
2013-04-08 08:45:00,53.9,51.0,30.11,ESE,103,0.0,-999.0,90,0.00,,,0.00,Wunderground v.1.12,2013-04-08 12:45:00,
2013-04-08 08:50:00,54.5,51.6,30.11,ESE,103,0.0,-999.0,90,0.00,,,0.00,Wunderground v.1.12,2013-04-08 12:50:00,
2013-04-08 08:55:00,55.0,52.1,30.11,ESE,102,0.0,-999.0,90,0.00,,,0.00,Wunderground v.1.12,2013-04-08 12:55:00,
2013-04-08 09:00:00,55.6,52.7,30.11,ESE,103,0.0,-999.0,90,0.00,,,0.00,Wunderground v.1.12,2013-04-08 13:00:00,
2013-04-08 09:05:00,56.0,53.4,30.11,ESE,103,0.0,-999.0,91,0.00,,,0.00,Wunderground v.1.12,2013-04-08 13:05:00,
2013-04-08 09:10:00,56.5,53.9,30.13,East,101,0.0,-999.0,91,0.00,,,0.00,Wunderground v.1.12,2013-04-08 13:10:00,
2013-04-08 09:15:00,57.2,54.3,30.13,ESE,106,0.0,-999.0,90,0.00,,,0.00,Wunderground v.1.12,2013-04-08 13:15:00,
2013-04-08 09:20:00,57.6,54.4,30.13,East,86,0.0,-999.0,89,0.00,,,0.00,Wunderground v.1.12,2013-04-08 13:20:00,
2013-04-08 09:25:00,58.3,54.8,30.13,ESE,115,3.0,-999.0,88,0.00,,,0.00,Wunderground v.1.12,2013-04-08 13:25:00,
2013-04-08 09:30:00,58.9,54.7,30.13,ESE,115,0.0,-999.0,86,0.00,,,0.00,Wunderground v.1.12,2013-04-08 13:30:00,
2013-04-08 09:36:00,59.6,54.8,30.13,ESE,112,0.0,-999.0,84,0.00,,,0.00,Wunderground v.1.12,2013-04-08 13:36:00,
2013-04-08 09:41:00,60.2,54.7,30.12,ESE,122,3.0,-999.0,82,0.00,,,0.00,Wunderground v.1.12,2013-04-08 13:41:00,
2013-04-08 09:46:00,61.2,54.6,30.12,East,92,0.0,-999.0,79,0.00,,,0.00,Wunderground v.1.12,2013-04-08 13:46:00,
2013-04-08 09:51:00,61.6,54.3,30.12,East,94,0.0,-999.0,77,0.00,,,0.00,Wunderground v.1.12,2013-04-08 13:51:00,
2013-04-08 09:56:00,62.3,54.6,30.12,ENE,70,0.0,-999.0,76,0.00,,,0.00,Wunderground v.1.12,2013-04-08 13:56:00,
2013-04-08 10:01:00,62.9,54.5,30.12,East,92,0.0,-999.0,74,0.00,,,0.00,Wunderground v.1.12,2013-04-08 14:01:00,
2013-04-08 10:07:00,63.5,54.7,30.12,East,79,0.0,-999.0,73,0.00,,,0.00,Wunderground v.1.12,2013-04-08 14:07:00,
2013-04-08 10:12:00,64.2,55.0,30.12,ENE,65,0.0,-999.0,72,0.00,,,0.00,Wunderground v.1.12,2013-04-08 14:12:00,
2013-04-08 10:17:00,64.8,55.2,30.12,East,89,0.0,-999.0,71,0.00,,,0.00,Wunderground v.1.12,2013-04-08 14:17:00,
2013-04-08 10:22:00,65.6,55.2,30.12,ESE,119,0.0,-999.0,69,0.00,,,0.00,Wunderground v.1.12,2013-04-08 14:22:00,
2013-04-08 10:27:00,66.1,55.2,30.12,NNE,33,0.0,-999.0,68,0.00,,,0.00,Wunderground v.1.12,2013-04-08 14:27:00,
2013-04-08 10:32:00,66.8,54.7,30.12,ENE,68,0.0,-999.0,65,0.00,,,0.00,Wunderground v.1.12,2013-04-08 14:32:00,
2013-04-08 10:37:00,67.4,55.2,30.12,NE,41,0.0,-999.0,65,0.00,,,0.00,Wunderground v.1.12,2013-04-08 14:37:00,
2013-04-08 10:42:00,67.9,55.3,30.11,NNE,24,3.0,-999.0,64,0.00,,,0.00,Wunderground v.1.12,2013-04-08 14:42:00,
2013-04-08 10:47:00,68.6,55.1,30.11,North,352,0.0,-999.0,62,0.00,,,0.00,Wunderground v.1.12,2013-04-08 14:47:00,
2013-04-08 10:52:00,69.1,54.2,30.11,East,85,0.0,-999.0,59,0.00,,,0.00,Wunderground v.1.12,2013-04-08 14:52:00,
2013-04-08 10:57:00,69.4,54.0,30.11,ENE,64,0.0,-999.0,58,0.00,,,0.00,Wunderground v.1.12,2013-04-08 14:57:00,
2013-04-08 11:02:00,70.3,54.3,30.11,NW,321,1.0,-999.0,57,0.00,,,0.00,Wunderground v.1.12,2013-04-08 15:02:00,
2013-04-08 11:07:00,70.8,53.8,30.11,South,187,3.0,-999.0,55,0.00,,,0.00,Wunderground v.1.12,2013-04-08 15:07:00,
2013-04-08 11:12:00,71.3,53.8,30.11,ESE,123,0.0,-999.0,54,0.00,,,0.00,Wunderground v.1.12,2013-04-08 15:12:00,
2013-04-08 11:17:00,71.6,53.6,30.11,ENE,68,0.0,-999.0,53,0.00,,,0.00,Wunderground v.1.12,2013-04-08 15:17:00,
2013-04-08 11:22:00,72.0,53.9,30.11,SW,225,0.0,-999.0,53,0.00,,,0.00,Wunderground v.1.12,2013-04-08 15:22:00,
2013-04-08 11:27:00,72.5,54.4,30.11,North,6,0.0,-999.0,53,0.00,,,0.00,Wunderground v.1.12,2013-04-08 15:27:00,
2013-04-08 11:32:00,73.0,54.3,30.11,NNE,13,0.0,-999.0,52,0.00,,,0.00,Wunderground v.1.12,2013-04-08 15:32:00,
2013-04-08 11:37:00,73.3,53.0,30.11,NNE,31,0.0,-999.0,49,0.00,,,0.00,Wunderground v.1.12,2013-04-08 15:37:00,
2013-04-08 11:42:00,73.7,53.3,30.11,East,92,0.0,-999.0,49,0.00,,,0.00,Wunderground v.1.12,2013-04-08 15:42:00,
2013-04-08 11:47:00,74.0,53.1,30.11,East,85,0.0,-999.0,48,0.00,,,0.00,Wunderground v.1.12,2013-04-08 15:47:00,
2013-04-08 11:53:00,74.7,52.5,30.11,East,86,0.0,-999.0,46,0.00,,,0.00,Wunderground v.1.12,2013-04-08 15:53:00,
2013-04-08 11:58:00,75.1,52.9,30.11,ENE,72,0.0,-999.0,46,0.00,,,0.00,Wunderground v.1.12,2013-04-08 15:58:00,
2013-04-08 12:03:00,75.6,52.8,30.11,North,0,0.0,-999.0,45,0.00,,,0.00,Wunderground v.1.12,2013-04-08 16:03:00,
2013-04-08 12:08:00,75.6,52.1,30.11,ESE,105,0.0,-999.0,44,0.00,,,0.00,Wunderground v.1.12,2013-04-08 16:08:00,
2013-04-08 12:14:00,75.8,51.1,30.10,WNW,284,0.0,-999.0,42,0.00,,,0.00,Wunderground v.1.12,2013-04-08 16:14:00,
2013-04-08 12:19:00,76.3,51.5,30.10,North,2,0.0,-999.0,42,0.00,,,0.00,Wunderground v.1.12,2013-04-08 16:19:00,
2013-04-08 12:24:00,76.8,51.3,30.10,East,94,0.0,-999.0,41,0.00,,,0.00,Wunderground v.1.12,2013-04-08 16:24:00,
2013-04-08 12:29:00,77.2,50.3,30.09,ESE,103,1.0,-999.0,39,0.00,,,0.00,Wunderground v.1.12,2013-04-08 16:29:00,
2013-04-08 12:34:00,77.6,50.7,30.09,SE,142,3.0,-999.0,39,0.00,,,0.00,Wunderground v.1.12,2013-04-08 16:34:00,
2013-04-08 12:39:00,77.4,51.2,30.09,West,277,1.0,-999.0,40,0.00,,,0.00,Wunderground v.1.12,2013-04-08 16:39:00,
2013-04-08 12:45:00,77.2,51.0,30.09,NNW,348,0.0,-999.0,40,0.00,,,0.00,Wunderground v.1.12,2013-04-08 16:45:00,
2013-04-08 12:50:00,77.0,50.1,30.09,NW,307,0.0,-999.0,39,0.00,,,0.00,Wunderground v.1.12,2013-04-08 16:50:00,
2013-04-08 12:55:00,77.2,52.3,30.09,WSW,239,0.0,-999.0,42,0.00,,,0.00,Wunderground v.1.12,2013-04-08 16:55:00,
2013-04-08 13:00:00,77.4,49.1,30.09,SE,137,3.0,-999.0,37,0.00,,,0.00,Wunderground v.1.12,2013-04-08 17:00:00,
2013-04-08 13:05:00,77.6,52.0,30.09,ESE,123,0.0,-999.0,41,0.00,,,0.00,Wunderground v.1.12,2013-04-08 17:05:00,
2013-04-08 13:10:00,77.7,50.8,30.09,NNE,19,0.0,-999.0,39,0.00,,,0.00,Wunderground v.1.12,2013-04-08 17:10:00,
2013-04-08 13:15:00,77.7,50.1,30.08,ENE,62,3.0,-999.0,38,0.00,,,0.00,Wunderground v.1.12,2013-04-08 17:15:00,
2013-04-08 13:20:00,77.4,51.2,30.08,ENE,74,0.0,-999.0,40,0.00,,,0.00,Wunderground v.1.12,2013-04-08 17:20:00,
2013-04-08 13:25:00,77.6,50.7,30.08,North,10,0.0,-999.0,39,0.00,,,0.00,Wunderground v.1.12,2013-04-08 17:25:00,
2013-04-08 13:30:00,77.4,49.8,30.08,NNW,348,0.0,-999.0,38,0.00,,,0.00,Wunderground v.1.12,2013-04-08 17:30:00,
2013-04-08 13:35:00,77.7,52.8,30.08,North,3,0.0,-999.0,42,0.00,,,0.00,Wunderground v.1.12,2013-04-08 17:35:00,
2013-04-08 13:40:00,78.1,51.8,30.08,NNW,339,0.0,-999.0,40,0.00,,,0.00,Wunderground v.1.12,2013-04-08 17:40:00,
2013-04-08 13:45:00,78.3,49.9,30.08,NNW,339,0.0,-999.0,37,0.00,,,0.00,Wunderground v.1.12,2013-04-08 17:45:00,
2013-04-08 13:51:00,78.5,50.1,30.08,NNW,335,0.0,-999.0,37,0.00,,,0.00,Wunderground v.1.12,2013-04-08 17:51:00,
2013-04-08 13:56:00,78.3,50.6,30.07,ENE,70,0.0,-999.0,38,0.00,,,0.00,Wunderground v.1.12,2013-04-08 17:56:00,
2013-04-08 14:01:00,77.9,49.5,30.07,North,358,0.0,-999.0,37,0.00,,,0.00,Wunderground v.1.12,2013-04-08 18:01:00,
2013-04-08 14:06:00,77.9,50.2,30.07,NNW,332,0.0,-999.0,38,0.00,,,0.00,Wunderground v.1.12,2013-04-08 18:06:00,
2013-04-08 14:11:00,77.9,51.6,30.06,NNW,339,0.0,-999.0,40,0.00,,,0.00,Wunderground v.1.12,2013-04-08 18:11:00,
2013-04-08 14:16:00,78.5,51.5,30.06,East,91,0.0,-999.0,39,0.00,,,0.00,Wunderground v.1.12,2013-04-08 18:16:00,
2013-04-08 14:21:00,78.3,49.9,30.06,NE,36,0.0,-999.0,37,0.00,,,0.00,Wunderground v.1.12,2013-04-08 18:21:00,
2013-04-08 14:26:00,78.5,50.8,30.05,ENE,68,0.0,-999.0,38,0.00,,,0.00,Wunderground v.1.12,2013-04-08 18:26:00,
2013-04-08 14:31:00,78.5,50.1,30.05,WNW,287,0.0,-999.0,37,0.00,,,0.00,Wunderground v.1.12,2013-04-08 18:31:00,
2013-04-08 14:37:00,78.6,50.9,30.05,South,191,0.0,-999.0,38,0.00,,,0.00,Wunderground v.1.12,2013-04-08 18:37:00,
2013-04-08 14:42:00,79.0,50.5,30.05,ESE,110,0.0,-999.0,37,0.00,,,0.00,Wunderground v.1.12,2013-04-08 18:42:00,
2013-04-08 14:47:00,79.4,49.4,30.05,ESE,102,0.0,-999.0,35,0.00,,,0.00,Wunderground v.1.12,2013-04-08 18:47:00,
2013-04-08 14:52:00,79.6,50.3,30.05,NW,305,0.0,-999.0,36,0.00,,,0.00,Wunderground v.1.12,2013-04-08 18:52:00,
2013-04-08 14:57:00,79.6,49.5,30.04,NW,304,0.0,-999.0,35,0.00,,,0.00,Wunderground v.1.12,2013-04-08 18:57:00,
2013-04-08 15:02:00,79.4,50.1,30.04,NW,304,0.0,-999.0,36,0.00,,,0.00,Wunderground v.1.12,2013-04-08 19:02:00,
2013-04-08 15:07:00,79.2,52.1,30.04,East,99,0.0,-999.0,39,0.00,,,0.00,Wunderground v.1.12,2013-04-08 19:07:00,
2013-04-08 15:12:00,79.2,49.9,30.04,WSW,249,0.0,-999.0,36,0.00,,,0.00,Wunderground v.1.12,2013-04-08 19:12:00,
2013-04-08 15:17:00,78.8,49.6,30.04,SSE,150,0.0,-999.0,36,0.00,,,0.00,Wunderground v.1.12,2013-04-08 19:17:00,
2013-04-08 15:22:00,78.5,50.8,30.04,NNE,31,1.0,-999.0,38,0.00,,,0.00,Wunderground v.1.12,2013-04-08 19:22:00,
2013-04-08 15:27:00,78.6,50.9,30.03,East,98,0.0,-999.0,38,0.00,,,0.00,Wunderground v.1.12,2013-04-08 19:27:00,
2013-04-08 15:32:00,78.8,50.3,30.03,East,96,0.0,-999.0,37,0.00,,,0.00,Wunderground v.1.12,2013-04-08 19:32:00,
2013-04-08 15:37:00,78.6,49.4,30.03,East,96,0.0,-999.0,36,0.00,,,0.00,Wunderground v.1.12,2013-04-08 19:37:00,
2013-04-08 15:42:00,79.0,50.5,30.03,East,98,0.0,-999.0,37,0.00,,,0.00,Wunderground v.1.12,2013-04-08 19:42:00,
2013-04-08 15:48:00,79.6,49.5,30.03,East,85,0.0,-999.0,35,0.00,,,0.00,Wunderground v.1.12,2013-04-08 19:48:00,
2013-04-08 15:53:00,79.8,48.9,30.03,NNW,345,0.0,-999.0,34,0.00,,,0.00,Wunderground v.1.12,2013-04-08 19:53:00,
2013-04-08 15:58:00,79.8,49.7,30.03,NNE,20,2.0,-999.0,35,0.00,,,0.00,Wunderground v.1.12,2013-04-08 19:58:00,
2013-04-08 16:04:00,79.6,50.3,30.03,SE,127,0.0,-999.0,36,0.00,,,0.00,Wunderground v.1.12,2013-04-08 20:04:00,
2013-04-08 16:09:00,79.4,50.1,30.03,ESE,106,0.0,-999.0,36,0.00,,,0.00,Wunderground v.1.12,2013-04-08 20:09:00,
2013-04-08 16:14:00,79.4,50.1,30.02,East,98,0.0,-999.0,36,0.00,,,0.00,Wunderground v.1.12,2013-04-08 20:14:00,
2013-04-08 16:19:00,79.2,50.7,30.02,SE,132,0.0,-999.0,37,0.00,,,0.00,Wunderground v.1.12,2013-04-08 20:19:00,
2013-04-08 16:24:00,79.0,49.8,30.02,East,98,3.0,-999.0,36,0.00,,,0.00,Wunderground v.1.12,2013-04-08 20:24:00,
2013-04-08 16:29:00,78.8,50.3,30.01,East,81,0.0,-999.0,37,0.00,,,0.00,Wunderground v.1.12,2013-04-08 20:29:00,
2013-04-08 16:34:00,78.6,50.1,30.01,West,267,3.0,-999.0,37,0.00,,,0.00,Wunderground v.1.12,2013-04-08 20:34:00,
2013-04-08 16:39:00,78.5,50.8,30.01,NNE,31,0.0,-999.0,38,0.00,,,0.00,Wunderground v.1.12,2013-04-08 20:39:00,
2013-04-08 16:44:00,78.3,49.9,30.01,WNW,302,0.0,-999.0,37,0.00,,,0.00,Wunderground v.1.12,2013-04-08 20:44:00,
2013-04-08 16:49:00,78.1,51.1,30.01,WNW,301,0.0,-999.0,39,0.00,,,0.00,Wunderground v.1.12,2013-04-08 20:49:00,
2013-04-08 16:54:00,77.9,50.9,30.01,WSW,238,0.0,-999.0,39,0.00,,,0.00,Wunderground v.1.12,2013-04-08 20:54:00,
2013-04-08 16:59:00,77.7,50.8,30.01,WSW,249,0.0,-999.0,39,0.00,,,0.00,Wunderground v.1.12,2013-04-08 20:59:00,
2013-04-08 17:05:00,77.6,50.7,30.01,WSW,246,0.0,-999.0,39,0.00,,,0.00,Wunderground v.1.12,2013-04-08 21:05:00,
2013-04-08 17:10:00,77.6,50.7,30.01,WSW,247,0.0,-999.0,39,0.00,,,0.00,Wunderground v.1.12,2013-04-08 21:10:00,
2013-04-08 17:15:00,77.4,50.5,30.01,North,5,0.0,-999.0,39,0.00,,,0.00,Wunderground v.1.12,2013-04-08 21:15:00,
2013-04-08 17:20:00,77.2,50.3,30.01,North,3,0.0,-999.0,39,0.00,,,0.00,Wunderground v.1.12,2013-04-08 21:20:00,
2013-04-08 17:25:00,77.2,50.3,30.01,North,5,0.0,-999.0,39,0.00,,,0.00,Wunderground v.1.12,2013-04-08 21:25:00,
2013-04-08 17:30:00,77.0,50.1,30.01,North,5,0.0,-999.0,39,0.00,,,0.00,Wunderground v.1.12,2013-04-08 21:30:00,
2013-04-08 17:35:00,77.0,50.8,30.01,North,5,0.0,-999.0,40,0.00,,,0.00,Wunderground v.1.12,2013-04-08 21:35:00,
2013-04-08 17:40:00,77.0,50.1,30.01,North,358,0.0,-999.0,39,0.00,,,0.00,Wunderground v.1.12,2013-04-08 21:40:00,
2013-04-08 17:45:00,77.0,50.8,30.00,East,99,0.0,-999.0,40,0.00,,,0.00,Wunderground v.1.12,2013-04-08 21:45:00,
2013-04-08 17:50:00,76.8,50.0,30.00,East,84,0.0,-999.0,39,0.00,,,0.00,Wunderground v.1.12,2013-04-08 21:50:00,
2013-04-08 17:55:00,76.8,50.0,30.00,SE,144,0.0,-999.0,39,0.00,,,0.00,Wunderground v.1.12,2013-04-08 21:55:00,
2013-04-08 18:00:00,76.8,50.0,30.00,NNW,335,0.0,-999.0,39,0.00,,,0.00,Wunderground v.1.12,2013-04-08 22:00:00,
2013-04-08 18:05:00,76.7,49.9,30.00,NNW,334,0.0,-999.0,39,0.00,,,0.00,Wunderground v.1.12,2013-04-08 22:05:00,
2013-04-08 18:10:00,76.8,50.0,30.00,NNW,334,0.0,-999.0,39,0.00,,,0.00,Wunderground v.1.12,2013-04-08 22:10:00,
2013-04-08 18:15:00,76.7,49.9,30.01,NNW,334,0.0,-999.0,39,0.00,,,0.00,Wunderground v.1.12,2013-04-08 22:15:00,
2013-04-08 18:20:00,76.7,49.9,30.01,NNW,335,0.0,-999.0,39,0.00,,,0.00,Wunderground v.1.12,2013-04-08 22:20:00,
2013-04-08 18:25:00,76.7,49.9,30.01,SE,139,0.0,-999.0,39,0.00,,,0.00,Wunderground v.1.12,2013-04-08 22:25:00,
2013-04-08 18:30:00,76.7,49.2,30.01,North,352,0.0,-999.0,38,0.00,,,0.00,Wunderground v.1.12,2013-04-08 22:30:00,
2013-04-08 18:35:00,76.5,49.7,30.01,North,353,0.0,-999.0,39,0.00,,,0.00,Wunderground v.1.12,2013-04-08 22:35:00,
2013-04-08 18:40:00,76.3,50.2,30.01,NNW,342,0.0,-999.0,40,0.00,,,0.00,Wunderground v.1.12,2013-04-08 22:40:00,
2013-04-08 18:45:00,76.3,50.2,30.01,WNW,294,0.0,-999.0,40,0.00,,,0.00,Wunderground v.1.12,2013-04-08 22:45:00,
2013-04-08 18:50:00,76.3,49.5,30.01,WNW,295,0.0,-999.0,39,0.00,,,0.00,Wunderground v.1.12,2013-04-08 22:50:00,
2013-04-08 18:55:00,76.1,50.0,30.01,WNW,295,0.0,-999.0,40,0.00,,,0.00,Wunderground v.1.12,2013-04-08 22:55:00,
2013-04-08 19:00:00,76.0,49.9,30.00,WNW,293,0.0,-999.0,40,0.00,,,0.00,Wunderground v.1.12,2013-04-08 23:00:00,
2013-04-08 19:05:00,76.0,49.9,30.00,WNW,293,0.0,-999.0,40,0.00,,,0.00,Wunderground v.1.12,2013-04-08 23:05:00,
2013-04-08 19:10:00,75.8,51.1,30.00,WNW,293,0.0,-999.0,42,0.00,,,0.00,Wunderground v.1.12,2013-04-08 23:10:00,
2013-04-08 19:15:00,75.6,50.9,30.01,WNW,293,0.0,-999.0,42,0.00,,,0.00,Wunderground v.1.12,2013-04-08 23:15:00,
2013-04-08 19:20:00,75.4,52.0,30.01,WNW,293,0.0,-999.0,44,0.00,,,0.00,Wunderground v.1.12,2013-04-08 23:20:00,
2013-04-08 19:25:00,75.1,52.3,30.01,SSW,198,0.0,-999.0,45,0.00,,,0.00,Wunderground v.1.12,2013-04-08 23:25:00,
2013-04-08 19:30:00,74.9,50.9,30.01,SSW,198,0.0,-999.0,43,0.00,,,0.00,Wunderground v.1.12,2013-04-08 23:30:00,
2013-04-08 19:36:00,74.6,50.6,30.01,SSW,198,0.0,-999.0,43,0.00,,,0.00,Wunderground v.1.12,2013-04-08 23:36:00,
2013-04-08 19:41:00,74.4,51.7,30.01,SSW,198,0.0,-999.0,45,0.00,,,0.00,Wunderground v.1.12,2013-04-08 23:41:00,
2013-04-08 19:46:00,74.2,52.1,30.01,SSW,198,0.0,-999.0,46,0.00,,,0.00,Wunderground v.1.12,2013-04-08 23:46:00,
2013-04-08 19:51:00,73.9,52.4,30.01,SSW,198,0.0,-999.0,47,0.00,,,0.00,Wunderground v.1.12,2013-04-08 23:51:00,
2013-04-08 19:56:00,73.5,52.6,30.01,SSW,198,0.0,-999.0,48,0.00,,,0.00,Wunderground v.1.12,2013-04-08 23:56:00,
2013-04-08 20:01:00,73.0,52.7,30.01,SSW,198,0.0,-999.0,49,0.00,,,0.00,Wunderground v.1.12,2013-04-09 00:01:00,
2013-04-08 20:06:00,72.3,52.6,30.01,SSW,198,0.0,-999.0,50,0.00,,,0.00,Wunderground v.1.12,2013-04-09 00:06:00,
2013-04-08 20:11:00,71.8,52.7,30.02,SSW,198,0.0,-999.0,51,0.00,,,0.00,Wunderground v.1.12,2013-04-09 00:11:00,
2013-04-08 20:16:00,71.3,52.2,30.02,SSW,198,0.0,-999.0,51,0.00,,,0.00,Wunderground v.1.12,2013-04-09 00:16:00,
2013-04-08 20:21:00,70.8,52.3,30.02,SSW,198,0.0,-999.0,52,0.00,,,0.00,Wunderground v.1.12,2013-04-09 00:21:00,
2013-04-08 20:26:00,70.3,52.4,30.02,SSW,198,0.0,-999.0,53,0.00,,,0.00,Wunderground v.1.12,2013-04-09 00:26:00,
2013-04-08 20:32:00,69.6,52.7,30.02,SSW,198,0.0,-999.0,55,0.00,,,0.00,Wunderground v.1.12,2013-04-09 00:32:00,
2013-04-08 20:37:00,69.1,52.7,30.02,SSW,198,0.0,-999.0,56,0.00,,,0.00,Wunderground v.1.12,2013-04-09 00:37:00,
2013-04-08 20:42:00,68.6,52.8,30.02,SSW,198,0.0,-999.0,57,0.00,,,0.00,Wunderground v.1.12,2013-04-09 00:42:00,
2013-04-08 20:47:00,68.1,52.8,30.02,SSW,198,0.0,-999.0,58,0.00,,,0.00,Wunderground v.1.12,2013-04-09 00:47:00,
2013-04-08 20:52:00,67.6,52.3,30.02,SSW,198,0.0,-999.0,58,0.00,,,0.00,Wunderground v.1.12,2013-04-09 00:52:00,
2013-04-08 20:57:00,67.3,52.5,30.03,SSW,198,0.0,-999.0,59,0.00,,,0.00,Wunderground v.1.12,2013-04-09 00:57:00,
2013-04-08 21:02:00,66.8,52.5,30.03,SSW,198,0.0,-999.0,60,0.00,,,0.00,Wunderground v.1.12,2013-04-09 01:02:00,
2013-04-08 21:07:00,66.3,52.0,30.03,SSW,198,0.0,-999.0,60,0.00,,,0.00,Wunderground v.1.12,2013-04-09 01:07:00,
2013-04-08 21:12:00,66.0,52.2,30.02,SSW,198,0.0,-999.0,61,0.00,,,0.00,Wunderground v.1.12,2013-04-09 01:12:00,
2013-04-08 21:17:00,65.6,52.2,30.02,SSW,198,0.0,-999.0,62,0.00,,,0.00,Wunderground v.1.12,2013-04-09 01:17:00,
2013-04-08 21:22:00,65.2,52.3,30.02,SSW,198,0.0,-999.0,63,0.00,,,0.00,Wunderground v.1.12,2013-04-09 01:22:00,
2013-04-08 21:27:00,64.8,51.9,30.03,SSW,198,0.0,-999.0,63,0.00,,,0.00,Wunderground v.1.12,2013-04-09 01:27:00,
2013-04-08 21:32:00,64.5,52.5,30.03,SSW,198,0.0,-999.0,65,0.00,,,0.00,Wunderground v.1.12,2013-04-09 01:32:00,
2013-04-08 21:37:00,64.2,52.2,30.03,SSW,198,0.0,-999.0,65,0.00,,,0.00,Wunderground v.1.12,2013-04-09 01:37:00,
2013-04-08 21:42:00,63.9,51.9,30.04,SSW,198,0.0,-999.0,65,0.00,,,0.00,Wunderground v.1.12,2013-04-09 01:42:00,
2013-04-08 21:47:00,63.7,51.7,30.04,SSW,198,0.0,-999.0,65,0.00,,,0.00,Wunderground v.1.12,2013-04-09 01:47:00,
2013-04-08 21:52:00,63.4,51.8,30.04,SSW,198,0.0,-999.0,66,0.00,,,0.00,Wunderground v.1.12,2013-04-09 01:52:00,
2013-04-08 21:58:00,63.1,51.6,30.04,SSW,198,0.0,-999.0,66,0.00,,,0.00,Wunderground v.1.12,2013-04-09 01:58:00,
2013-04-08 22:03:00,62.7,51.6,30.04,SSW,198,0.0,-999.0,67,0.00,,,0.00,Wunderground v.1.12,2013-04-09 02:03:00,
2013-04-08 22:10:00,62.4,51.7,30.04,SSW,198,0.0,-999.0,68,0.00,,,0.00,Wunderground v.1.12,2013-04-09 02:10:00,
2013-04-08 22:15:00,62.3,52.0,30.04,SSW,198,0.0,-999.0,69,0.00,,,0.00,Wunderground v.1.12,2013-04-09 02:15:00,
2013-04-08 22:20:00,62.0,51.7,30.04,SSW,198,0.0,-999.0,69,0.00,,,0.00,Wunderground v.1.12,2013-04-09 02:20:00,
2013-04-08 22:25:00,61.8,51.5,30.04,SSW,198,0.0,-999.0,69,0.00,,,0.00,Wunderground v.1.12,2013-04-09 02:25:00,
2013-04-08 22:30:00,61.5,51.2,30.05,SSW,198,0.0,-999.0,69,0.00,,,0.00,Wunderground v.1.12,2013-04-09 02:30:00,
2013-04-08 22:35:00,61.3,51.0,30.05,SSW,198,0.0,-999.0,69,0.00,,,0.00,Wunderground v.1.12,2013-04-09 02:35:00,
2013-04-08 22:40:00,61.2,50.9,30.05,SSW,198,0.0,-999.0,69,0.00,,,0.00,Wunderground v.1.12,2013-04-09 02:40:00,
2013-04-08 22:45:00,60.9,51.0,30.05,SSW,198,0.0,-999.0,70,0.00,,,0.00,Wunderground v.1.12,2013-04-09 02:45:00,
2013-04-08 22:50:00,60.7,50.9,30.05,SSW,198,0.0,-999.0,70,0.00,,,0.00,Wunderground v.1.12,2013-04-09 02:50:00,
2013-04-08 22:55:00,60.5,50.7,30.05,SSW,198,0.0,-999.0,70,0.00,,,0.00,Wunderground v.1.12,2013-04-09 02:55:00,
2013-04-08 23:00:00,60.4,51.0,30.05,SSW,198,0.0,-999.0,71,0.00,,,0.00,Wunderground v.1.12,2013-04-09 03:00:00,
2013-04-08 23:05:00,60.1,50.7,30.05,SSW,198,0.0,-999.0,71,0.00,,,0.00,Wunderground v.1.12,2013-04-09 03:05:00,
2013-04-08 23:10:00,59.9,50.8,30.05,SSW,198,0.0,-999.0,72,0.00,,,0.00,Wunderground v.1.12,2013-04-09 03:10:00,
2013-04-08 23:15:00,59.8,50.8,30.05,SSW,198,0.0,-999.0,72,0.00,,,0.00,Wunderground v.1.12,2013-04-09 03:15:00,
2013-04-08 23:20:00,59.6,50.6,30.05,SSW,198,0.0,-999.0,72,0.00,,,0.00,Wunderground v.1.12,2013-04-09 03:20:00,
2013-04-08 23:25:00,59.5,50.5,30.05,SSW,198,0.0,-999.0,72,0.00,,,0.00,Wunderground v.1.12,2013-04-09 03:25:00,
2013-04-08 23:31:00,59.3,50.6,30.05,SSW,198,0.0,-999.0,73,0.00,,,0.00,Wunderground v.1.12,2013-04-09 03:31:00,
2013-04-08 23:36:00,59.2,50.5,30.05,SSW,198,0.0,-999.0,73,0.00,,,0.00,Wunderground v.1.12,2013-04-09 03:36:00,
2013-04-08 23:41:00,58.9,50.3,30.06,SSW,198,0.0,-999.0,73,0.00,,,0.00,Wunderground v.1.12,2013-04-09 03:41:00,
2013-04-08 23:46:00,58.7,50.1,30.06,SSW,198,0.0,-999.0,73,0.00,,,0.00,Wunderground v.1.12,2013-04-09 03:46:00,
2013-04-08 23:52:00,58.6,50.3,30.06,SSW,198,0.0,-999.0,74,0.00,,,0.00,Wunderground v.1.12,2013-04-09 03:52:00,
2013-04-08 23:57:00,58.4,50.1,30.06,SSW,198,0.0,-999.0,74,0.00,,,0.00,Wunderground v.1.12,2013-04-09 03:57:00,